This is the latest recevied weather packets stored in our database for station/object VE2CSM-13. If no packets are shown the sender has not sent any weather packets the latest 10 day(s).
| Time | Temp. | Humidity | Pressure | Rain* | Wind** | Luminosity | Snow |
|---|---|---|---|---|---|---|---|
| 1777370698 | 8.89° C | 65% | 1030.3 hPa | 0 mm | - | - | - |
| 1777368898 | 8.33° C | 66% | 1030.4 hPa | 0 mm | - | - | - |
| 1777367099 | 8.33° C | 64% | 1030.8 hPa | 0 mm | - | - | - |
| 1777365298 | 7.78° C | 62% | 1030.8 hPa | 0 mm | - | - | - |
| 1777363498 | 7.22° C | 65% | 1031 hPa | 0 mm | - | - | - |
| 1777362538 | 7.78° C | 63% | 1031 hPa | 0 mm | - | - | - |
| 1777361578 | 7.22° C | 64% | 1031 hPa | 0 mm | - | - | - |
| 1777360619 | 7.22° C | 64% | 1031 hPa | 0 mm | - | - | - |
| 1777359658 | 7.22° C | 64% | 1031 hPa | 0 mm | - | - | - |
| 1777359178 | 7.78° C | 64% | 1030.9 hPa | 0 mm | - | - | - |
| 1777358699 | 7.78° C | 64% | 1031.1 hPa | 0 mm | - | - | - |
| 1777358218 | 7.22° C | 65% | 1031.2 hPa | 0 mm | - | - | - |
| 1777357738 | 7.22° C | 65% | 1031.2 hPa | 0 mm | - | - | - |
| 1777357498 | 7.22° C | 65% | 1031.3 hPa | 0 mm | - | - | - |
| 1777357258 | 7.22° C | 65% | 1031.3 hPa | 0 mm | - | - | - |
| 1777357019 | 6.67° C | 66% | 1031.2 hPa | 0 mm | - | - | - |
| 1777356778 | 6.67° C | 68% | 1031.2 hPa | 0 mm | - | - | - |
| 1777356658 | 6.67° C | 68% | 1031.2 hPa | 0 mm | - | - | - |
| 1777356538 | 6.67° C | 68% | 1031.2 hPa | 0 mm | - | - | - |
| 1777356418 | 6.67° C | 67% | 1031.4 hPa | 0 mm | - | - | - |
| 1777356337 | 6.67° C | 67% | 1031.4 hPa | 0 mm | - | - | - |
| 1777356178 | 6.67° C | 67% | 1031.4 hPa | 0 mm | - | - | - |
| 1777356119 | 6.67° C | 67% | 1031.4 hPa | 0 mm | - | - | - |
| 1777354596 | 7.22° C | 67% | 1031.8 hPa | 0 mm | - | - | - |
| 1777352796 | 7.78° C | 65% | 1032.2 hPa | 0 mm | - | - | - |
* Rain latest hour (hover to see other rain measurements)
** Current wind speed in m/s (hover to see current wind gust speed)